User: anonymous   Login
Location: Bismarck
(46.7731°N, 100.8200°W)
Time: 11:47:32
(UTC-06:00)
Language:

Cosmos 1125 Rocket - Orbit

View from above orbital plane
View from above orbital plane
View from above satellite
View from above satellite

Ground track
Ground track

The orbit data is extracted from the following two-line orbital elements,

1 11511U 79078B   14328.18916277  .00000240  00000-0  90752-4 0  9509
2 11511 074.0376 235.4052 0016138 343.9120 178.2400 14.36506039844218
Epoch (UTC): 24 November 2014 04:32:23
Eccentricity: 0.0016138
inclination: 74.0376°
perigee height: 758 km
apogee height: 781 km
right ascension of ascending node: 235.4052°
argument of perigee: 343.9120°
revolutions per day: 14.36506039
mean anomaly at epoch: 178.2400°
orbit number at epoch: 84421

The dashed part of the orbit path shows where the satellite is in the earth's shadow,  

DLR